Location: Gro� Glienicke
(52.4675°N, 13.1079°E)
Time: 19:02:46
(UTC+00:00)

SL-8 Rocket - Pass Details

Date: 06 July 2020
Orbit: 958 x 990 km, 82.9° (Epoch: 12 August)

Event Time Altitude Azimuth Distance (km) Brightness Sun altitude
Exits shadow 22:11:04 19° 165° (SSE) 2,102 5.1 -13.8°
Maximum altitude 22:15:25 58° 93° (E) 1,114 4.2 -13.9°
Drops below altitude 10° 22:21:27 10° 16° (NNE) 2,703 7.3 -14.1°
Sets 22:23:59 0° 13° (NNE) 3,653 8.3 -14.2°
